Regional Weather Roundup
Issued by NWS

Home | Current Version | Previous Version | Graphics & Text | Print | Product List | Glossary On
Versions: 1 2 3 4 5 6 7 8 9 10 11 12 13 14 15 16 17 18 19 20 21 22 23 24 25 26 27 28 29 30 31 32 33 34 35 36 37 38 39 40 41 42 43 44 45 46 47 48 49 50
000
ASUS45 KBOI 091310
RWRID

IDAHO REGIONAL WEATHER ROUNDUP
NATIONAL WEATHER SERVICE BOISE ID
600 AM MST FRI DEC 09 2016

NOTE: "FAIR" INDICATES FEW OR NO CLOUDS BELOW 12000 FEET
WITH NO SIGNIFICANT WEATHER AND/OR OBSTRUCTIONS TO VISIBILITY

IDZ012-014-091400-
SOUTHWEST IDAHO


CITY           SKY/WX    TMP DP  RH WIND       PRES   REMARKS
BOISE          CLOUDY    26  23  88 CALM      30.13F
CALDWELL       CLOUDY    25  23  92 S5        30.17F WCI  19
MOUNTAIN HOME  CLOUDY    28  23  83 E7        30.12R WCI  20
$$

IDZ016-017-091400-
SOUTHCENTRAL IDAHO


CITY           SKY/WX    TMP DP  RH WIND       PRES   REMARKS
BURLEY         MOCLDY    23  20  88 VRB6      30.10S WCI  16
JEROME         CLOUDY    24  19  81 NE14      30.10F WCI  12
TWIN FALLS     MIX PCPN  26  24  92 E5        30.09F WCI  20
$$

IDZ019>023-091400-
SOUTHEAST IDAHO


CITY           SKY/WX    TMP DP  RH WIND       PRES   REMARKS
IDAHO FALLS    CLOUDY    20  16  84 N5        30.13S WCI  13
POCATELLO      CLOUDY    21  18  88 NE5       30.15S WCI  15
REXBURG        CLOUDY    21  17  84 NE6       30.12S WCI  13
$$

IDZ006-010-011-018-031-032-091400-
CENTRAL IDAHO MOUNTAINS


CITY           SKY/WX    TMP DP  RH WIND       PRES   REMARKS
MCCALL         CLOUDY    20  16  84 CALM      30.02F
HAILEY         CLOUDY    21  19  93 NW6       30.09S WCI  14
STANLEY          N/A     19  16  88 VRB3      30.02S
SALMON         CLOUDY    10   7  85 CALM      30.13F
CHALLIS        LGT SNOW  13  11  92 S3        30.09S FOG
$$

IDZ002-004-006-007-026-091400-
NORTHERN IDAHO


CITY           SKY/WX    TMP DP  RH WIND       PRES   REMARKS
LEWISTON       CLOUDY    24  21  88 CALM      30.16F
LOWELL           N/A     25  18  74 VRB3      30.22S
COEUR D`ALENE  FLURRIES  15  10  80 N16       30.16S WCI  -1
MULLAN PASS    LGT SNOW   2  -2  83 SE9       29.89S FOG     WCI -13
$$



USA.gov is the U.S. government's official web portal to all federal, state and local government web resources and services.